FREGAT R/B (43235 NORAD) Tracking and Keplerian Element Data

This shows tracking and keplerian element data for the satellite.

Feedback or suggestion? Click here.




ElementValue
Catalog43235
NameFREGAT R/B
Epoch Orbit147
Epoch Day97.21542979
Epoch Year2018
RAAN315.4059
Inclination0.0821
Eccentricity0.0010948
Argument of Perigee26.3467
Mean Anonmoly18.2069
Mean Motion5.21350793
Decay Rate-2.8E-07
L11 43235U 18024E 18097.21542979 -.00000028 00000-0 10000-3 0 9991
L22 43235 0.0821 315.4059 0010948 26.3467 18.2069 5.21350793 1470

Live tracking and technical data element details for FREGAT R/B (NORAD 43235). FREGAT R/B can be tracked NOW for your location showing map with azimuth and elevation plus other details from your city location.

Track the satellite on the map from your city or location and see movement details for azimuth, elevation, latitude, longitude, range, height, and movement on the map or in text.







IsCatalogInMostPopularTable: catalog: 43235, numindb: 83
Update: records affected: 1



GetName: 43235 FREGAT R/B

Hit Count: updated at: Tue, 20 Nov 2018 11:40:43 GMT